Hutchinson, MN

5:14 PM CDT on April 21, 2018 (GMT -0500)
Hutchinson Municipal-Butler

Weather History for KHCD - July, 2012

Change the Weather History Date:

Tuesday, July 31, 2012

  Actual Average Record
Temperature  
Mean Temperature 72 °F -  
Max Temperature 83 °F 81 °F 98 °F (2006)
Min Temperature 60 °F 61 °F 48 °F (1998)
Cooling Degree Days 6    
Growing Degree Days 22 (Base 50)    
Moisture  
Dew Point 67 °F    
Average Humidity 80    
Maximum Humidity 100    
Minimum Humidity 58    
Precipitation  
Precipitation 0.00 in - - ()
Sea Level Pressure  
Sea Level Pressure 30.00 in    
Wind  
Wind Speed 2 mph (ESE)    
Max Wind Speed 7 mph    
Max Gust Speed -    
Visibility 9 miles    
Events Fog    
Averages and records for this station are not official NWS values.
T = Trace of Precipitation, MM = Missing Value Source: NWS Daily Summary

Daily Weather History Graph

Daily Weather History Graph

Search for Another Location

Airport or City:

Astronomy

Jul. 31, 2012 Rise Set
Actual Time 6:02 AM CDT 8:44 PM CDT
Civil Twilight 5:29 AM CDT 9:17 PM CDT
Nautical Twilight 4:46 AM CDT 10:00 PM CDT
Astronomical Twilight 3:57 AM CDT 10:48 PM CDT
Moon 7:33 PM CDT (7/31) 4:23 AM CDT (7/31)
Length of Visible Light 15h 48m
Length of Day
14h 41m
Waxing Gibbous, 97% of the Moon is Illuminated
Jul 31
Waxing Gibbous
Aug 1
Full
Aug 9
Last Quarter
Aug 17
New
Aug 24
First Quarter

Hourly Weather History & Observations

Time (CDT) Temp. Heat Index Dew Point Humidity Pressure Visibility Wind Dir Wind Speed Gust Speed Precip Events Conditions
12:10 AM 69.3 °F - 67.8 °F 95% 29.98 in 10.0 mi WNW 3.5 mph - N/A   Clear
12:30 AM 66.7 °F - 65.7 °F 96% 29.98 in 10.0 mi NW 3.5 mph - N/A   Clear
12:50 AM 66.9 °F - 65.7 °F 96% 29.98 in 10.0 mi NW 3.5 mph - N/A   Clear
1:10 AM 66.6 °F - 66.0 °F 98% 29.98 in 10.0 mi Calm Calm - N/A   Clear
1:30 AM 66.4 °F - 65.5 °F 97% 29.99 in 10.0 mi Calm Calm - N/A   Clear
1:50 AM 66.7 °F - 65.8 °F 97% 29.99 in 10.0 mi Calm Calm - N/A   Clear
2:30 AM 67.6 °F - 66.2 °F 95% 29.99 in 10.0 mi Calm Calm - N/A   Clear
2:50 AM 64.8 °F - 63.9 °F 97% 30.00 in 10.0 mi Calm Calm - N/A   Clear
3:10 AM 64.4 °F - 63.7 °F 98% 30.00 in 10.0 mi Calm Calm - N/A   Clear
3:30 AM 64.4 °F - 63.9 °F 98% 30.00 in 10.0 mi Calm Calm - N/A   Clear
3:50 AM 64.4 °F - 63.9 °F 98% 30.00 in 10.0 mi Calm Calm - N/A   Clear
4:10 AM 62.2 °F - 62.1 °F 99% 30.00 in 7.0 mi Calm Calm - N/A   Clear
4:30 AM 62.4 °F - 62.4 °F 100% 30.00 in 5.0 mi Calm Calm - N/A   Clear
4:50 AM 62.2 °F - 62.2 °F 100% 30.00 in 5.0 mi Calm Calm - N/A   Clear
5:10 AM 61.7 °F - 61.7 °F 100% 30.00 in 5.0 mi Calm Calm - N/A   Clear
5:30 AM 61.7 °F - 61.7 °F 100% 30.01 in 7.0 mi Calm Calm - N/A   Clear
5:50 AM 61.5 °F - 61.5 °F 100% 30.01 in 0.2 mi Calm Calm - N/A Fog Fog
6:10 AM 61.0 °F - 61.0 °F 100% 30.01 in 0.5 mi Calm Calm - N/A Fog Fog
6:30 AM 60.6 °F - 61.0 °F 100% 30.02 in 0.2 mi Calm Calm - N/A Fog Fog
6:50 AM 60.8 °F - 61.0 °F 100% 30.02 in 7.0 mi Calm Calm - N/A   Clear
7:10 AM 62.6 °F - 62.8 °F 100% 30.01 in 10.0 mi Calm Calm - N/A   Clear
7:30 AM 69.3 °F - 69.4 °F 100% 30.01 in 10.0 mi ENE 3.5 mph - N/A   Clear
7:50 AM 70.5 °F - 68.2 °F 92% 30.02 in 10.0 mi ENE 4.6 mph - N/A   Clear
8:09 AM 71.8 °F - 67.3 °F 86% 30.02 in 10.0 mi ENE 5.8 mph - N/A   Clear
8:30 AM 74.3 °F - 68.9 °F 83% 30.02 in 10.0 mi ENE 6.9 mph - N/A   Clear
8:50 AM 74.3 °F - 68.4 °F 82% 30.02 in 10.0 mi East 5.8 mph - N/A   Clear
9:10 AM 74.3 °F - 67.8 °F 80% 30.02 in 10.0 mi ESE 5.8 mph - N/A   Clear
9:30 AM 74.3 °F - 67.5 °F 79% 30.02 in 10.0 mi East 3.5 mph - N/A   Clear
9:50 AM 76.8 °F - 68.4 °F 75% 30.03 in 10.0 mi Calm Calm - N/A   Clear
10:10 AM 77.0 °F - 67.1 °F 71% 30.03 in 10.0 mi ESE 3.5 mph - N/A   Clear
10:30 AM 77.0 °F - 66.2 °F 69% 30.04 in 10.0 mi SE 4.6 mph - N/A   Clear
10:50 AM 79.0 °F - 67.8 °F 69% 30.04 in 10.0 mi Calm Calm - N/A   Clear
11:10 AM 79.3 °F - 67.5 °F 67% 30.04 in 10.0 mi Calm Calm - N/A   Clear
11:30 AM 79.3 °F - 66.7 °F 65% 30.04 in 10.0 mi Calm Calm - N/A   Clear
11:50 AM 79.3 °F - 66.4 °F 64% 30.03 in 10.0 mi Calm Calm - N/A   Clear
12:10 PM 79.3 °F - 67.3 °F 66% 30.03 in 10.0 mi Calm Calm - N/A   Clear
12:30 PM 79.5 °F - 65.8 °F 63% 30.03 in 10.0 mi South 3.5 mph - N/A   Clear
12:50 PM 80.4 °F 83.2 °F 68.4 °F 67% 30.03 in 10.0 mi South 3.5 mph - N/A   Clear
1:10 PM 80.6 °F 83.2 °F 67.6 °F 65% 30.02 in 10.0 mi South 3.5 mph - N/A   Clear
1:29 PM 81.3 °F 84.1 °F 68.2 °F 64% 30.01 in 10.0 mi East 3.5 mph - N/A   Scattered Clouds
2:10 PM 82.0 °F 85.1 °F 68.2 °F 63% 30.01 in 10.0 mi South 4.6 mph - N/A   Scattered Clouds
2:30 PM 81.9 °F 84.2 °F 66.6 °F 60% 30.01 in 10.0 mi Calm Calm - N/A   Clear
2:50 PM 82.0 °F 84.1 °F 65.8 °F 58% 30.01 in 10.0 mi South 3.5 mph - N/A   Scattered Clouds
3:10 PM 82.8 °F 85.1 °F 66.7 °F 58% 30.01 in 10.0 mi Calm Calm - N/A   Clear
3:30 PM 83.3 °F 85.9 °F 67.1 °F 58% 30.00 in 10.0 mi Calm Calm - N/A   Clear
3:50 PM 82.9 °F 85.8 °F 67.6 °F 60% 30.00 in 10.0 mi SE 4.6 mph - N/A   Clear
4:10 PM 82.8 °F 85.1 °F 66.4 °F 58% 30.00 in 10.0 mi Calm Calm - N/A   Clear
4:30 PM 83.1 °F 85.7 °F 66.9 °F 58% 29.99 in 10.0 mi Calm Calm - N/A   Clear
4:50 PM 82.9 °F 85.4 °F 66.7 °F 58% 29.98 in 10.0 mi Calm Calm - N/A   Clear
5:10 PM 82.2 °F 84.7 °F 66.9 °F 60% 29.97 in 10.0 mi SE 4.6 mph - N/A   Clear
5:30 PM 81.9 °F 85.2 °F 68.9 °F 65% 29.97 in 10.0 mi SE 3.5 mph - N/A   Clear
5:49 PM 81.1 °F 84.0 °F 68.2 °F 65% 29.97 in 10.0 mi Calm Calm - N/A   Clear
6:10 PM 80.6 °F 83.6 °F 69.3 °F 68% 29.97 in 10.0 mi Calm Calm - N/A   Clear
6:30 PM 81.9 °F 84.4 °F 67.3 °F 61% 29.97 in 10.0 mi SSE 3.5 mph - N/A   Clear
6:50 PM 80.8 °F 83.3 °F 67.5 °F 64% 29.97 in 10.0 mi Calm Calm - N/A   Clear
7:10 PM 80.6 °F 83.5 °F 68.9 °F 67% 29.97 in 10.0 mi Calm Calm - N/A   Clear
7:30 PM 80.2 °F 83.0 °F 68.2 °F 67% 29.97 in 10.0 mi Calm Calm - N/A   Clear
7:50 PM 79.3 °F - 70.0 °F 73% 29.97 in 10.0 mi Calm Calm - N/A   Clear
8:10 PM 77.0 °F - 70.5 °F 80% 29.96 in 10.0 mi ESE 3.5 mph - N/A   Clear
8:30 PM 75.0 °F - 69.8 °F 84% 29.96 in 10.0 mi Calm Calm - N/A   Clear
8:50 PM 74.3 °F - 68.9 °F 83% 29.97 in 10.0 mi East 3.5 mph - N/A   Clear
9:07 PM 74.3 °F - 70.7 °F 88% 29.98 in 10.0 mi Calm Calm - N/A   Clear
9:35 PM 73.4 °F - 71.6 °F 94% 29.97 in 10.0 mi Calm Calm - N/A   Clear
9:50 PM 71.6 °F - 69.8 °F 94% 29.98 in 10.0 mi Calm Calm - N/A   Clear
10:35 PM 69.8 °F - 66.2 °F 88% 29.96 in 10.0 mi Calm Calm - N/A   Clear
11:10 PM 69.8 °F - 66.2 °F 88% 29.96 in 10.0 mi Calm Calm - N/A   Clear
11:30 PM 69.8 °F - 66.2 °F 88% 29.96 in 10.0 mi Calm Calm - N/A   Clear
11:55 PM 69.8 °F - 66.2 °F 88% 29.95 in 10.0 mi South 3.5 mph - N/A   Clear